[[{"header":{"parameterUnit":"m.s-1","parameterCategory":1,"la1":30.2991,"la2":30.254,"lo1":-89.0895,"lo2":-89.0444,"dy":0.0017,"dx":0.0017,"nx":28,"ny":28,"refTime":"2025-02-24T09:00:00:Z","depth":0,"parameterNumber":2,"parameterNumberName":"U-component_of_WINDS"},"data":[0,0,0,0,0,0,0,0,0,0,0,0,0,0,0,0,0,0,0,0,0,0,0,0,0,0,0,0,0,0,0,0,0,0,0,0,0,0,0,0,0,0,0,0,0,0,0,0,0,0,0,0,0,0,0,0,0,0,-0.794,-0.794,0,-0.796,-0.796,-0.796,-0.7986,-0.7986,-0.7987,-0.7987,-0.8008,-0.8008,-0.8008,0,0,0,0,0,0,0,0,0,0,0,0,0,-0.7924,-0.7924,-0.794,-0.794,-0.794,-0.796,-0.796,-0.796,-0.7986,-0.7986,-0.7987,-0.7987,-0.8008,-0.8008,-0.8008,0,0,0,0,0,0,0,0,0,0,0,0,0,-0.7936,-0.7924,-0.794,-0.7955,-0.7957,-0.796,-0.796,-0.796,-0.7986,-0.7986,-0.7987,-0.7988,-0.8008,-0.8008,-0.8009,-0.7998,0,0,-0.8009,-0.8009,0,0,0,0,0,0,0,0,-0.7936,-0.7937,-0.7953,-0.7954,-0.7956,-0.7971,-0.7962,-0.7973,-0.7986,-0.7975,-0.7987,-0.7988,-0.7995,-0.7997,-0.7999,-0.7999,-0.8,-0.8009,-0.8009,-0.801,-0.801,0,0,0,0,0,0,0,-0.7935,-0.7936,-0.7948,-0.7953,-0.7955,-0.7962,-0.7964,-0.7964,-0.7981,-0.7976,-0.7978,-0.798,-0.7996,-0.7999,-0.8,-0.8,-0.8009,-0.801,-0.801,-0.801,-0.799,-0.799,0,0,0,0,0,0,-0.7931,-0.7935,-0.7947,-0.7948,-0.7947,-0.7961,-0.7964,-0.7966,-0.7981,-0.7984,-0.7979,-0.7981,-0.7998,-0.7999,-0.8001,-0.7988,-0.801,-0.801,-0.801,-0.7991,-0.799,-0.799,0,0,0,0,0,0,-0.7931,-0.7932,-0.7946,-0.7942,-0.7945,-0.7961,-0.7963,-0.7966,-0.7968,-0.7984,-0.7987,-0.7978,-0.7999,-0.8,-0.7998,-0.7989,-0.801,-0.801,-0.7992,-0.7991,-0.799,-0.7963,0,0,0,0,0,0,-0.793,-0.7932,-0.7928,-0.7942,-0.7945,-0.7943,-0.7962,-0.7966,-0.7968,-0.7971,-0.7984,-0.7987,-0.7999,-0.7997,-0.7998,-0.799,-0.801,-0.7993,-0.7991,-0.799,-0.7965,-0.7961,-0.7958,0,0,0,0,0,-0.793,-0.792,-0.7928,-0.7929,-0.794,-0.7943,-0.7944,-0.7958,-0.7968,-0.7964,-0.7974,-0.7986,-0.799,-0.7997,-0.7998,-0.7989,-0.7993,-0.7992,-0.799,-0.7966,-0.7962,-0.7958,0,0,0,0,0,0,-0.7905,-0.7922,-0.7931,-0.7925,-0.7932,-0.7947,-0.7942,-0.7953,-0.7958,-0.796,-0.7978,-0.798,-0.7976,-0.7983,-0.799,-0.7979,-0.7994,-0.7992,-0.7975,-0.7971,-0.7967,-0.7965,-0.8011,0,0,0,0,0,-0.7899,-0.7899,-0.7914,-0.7908,-0.7911,-0.7926,-0.7928,-0.7938,-0.7946,-0.7949,-0.7959,-0.7966,-0.7969,-0.7971,-0.7974,-0.7966,-0.7969,-0.7961,-0.7957,-0.7955,-0.7953,-0.7948,-0.7944,-0.7985,-0.7985,-0.7985,0,0,-0.7886,-0.7895,-0.7895,-0.7903,-0.791,-0.791,-0.7928,-0.7928,-0.7928,-0.7949,-0.7947,-0.7955,-0.7964,-0.7958,-0.7957,-0.7964,-0.7943,-0.7953,-0.795,-0.795,-0.7946,-0.7942,-0.7939,-0.7984,-0.7984,-0.7984,0,0,-0.7862,-0.787,-0.7865,-0.7871,-0.788,-0.789,-0.7889,-0.7902,-0.7908,-0.7906,-0.7922,-0.7922,-0.7927,-0.7932,-0.7936,-0.7914,-0.7925,-0.7915,-0.7897,-0.7892,-0.7889,-0.7886,-0.7877,-0.7874,-0.7913,-0.7913,-0.7913,0,-0.7845,-0.7845,-0.7861,-0.7859,-0.7862,-0.7881,-0.7875,-0.7881,-0.7891,-0.7892,-0.7901,-0.7906,-0.7914,-0.791,-0.7904,-0.7907,-0.7905,-0.7913,-0.7888,-0.7885,-0.7883,-0.7874,-0.7871,-0.7912,-0.7912,-0.7912,-0.7912,0,-0.7823,-0.7823,-0.7818,-0.7827,-0.7829,-0.7826,-0.784,-0.7841,-0.7851,-0.786,-0.7858,-0.7868,-0.7873,-0.7873,-0.7883,-0.7869,-0.7874,-0.7885,-0.7899,-0.7877,-0.787,-0.7867,-0.7909,-0.791,-0.791,-0.7911,0,0,-0.7783,-0.7801,-0.7798,-0.7802,-0.7814,-0.7814,-0.7812,-0.7816,-0.7816,-0.7823,-0.782,-0.7823,-0.7833,-0.7837,-0.7848,-0.7844,-0.7824,-0.7856,-0.7856,-0.7848,-0.7809,-0.7799,-0.7795,-0.7833,-0.7832,-0.7832,-0.7807,0,-0.7761,-0.7757,-0.777,-0.7762,-0.7762,-0.778,-0.7778,-0.7785,-0.7793,-0.7794,-0.7804,-0.7805,-0.7819,-0.7821,-0.7818,-0.7827,-0.7816,-0.783,-0.783,-0.7829,-0.7825,-0.7791,-0.7782,-0.7758,-0.7805,-0.7804,-0.7804,0,-0.7734,-0.7738,-0.773,-0.7742,-0.7742,-0.774,-0.7745,-0.7746,-0.7754,-0.776,-0.7764,-0.7777,-0.7774,-0.7789,-0.7785,-0.7794,-0.7795,-0.78,-0.7799,-0.7799,-0.7814,-0.7789,-0.7751,-0.7747,-0.7799,-0.78,-0.78,0,-0.7704,-0.7708,-0.7704,-0.7707,-0.7721,-0.7718,-0.7724,-0.7732,-0.7734,-0.7739,-0.774,-0.7744,-0.7746,-0.7749,-0.7763,-0.7772,-0.7757,-0.7773,-0.7762,-0.7761,-0.7757,-0.7757,-0.7717,-0.776,-0.776,-0.776,-0.776,0,-0.7677,-0.7671,-0.769,-0.7687,-0.7681,-0.7697,-0.769,-0.7698,-0.7705,-0.7704,-0.772,-0.7719,-0.7737,-0.7737,-0.7747,-0.7742,-0.7744,-0.7748,-0.7751,-0.7746,-0.7745,-0.7746,-0.7747,-0.7759,-0.7759,-0.7759,-0.7759,0,-0.7642,-0.7655,-0.7651,-0.7664,-0.7667,-0.7662,-0.7673,-0.7671,-0.768,-0.7678,-0.7679,-0.7693,-0.7695,-0.7708,-0.7713,-0.7719,-0.771,-0.7716,-0.7707,-0.7708,-0.7695,-0.7696,-0.7654,-0.7649,-0.7696,-0.7695,-0.7695,0,-0.7623,-0.7619,-0.7631,-0.7632,-0.7636,-0.7636,-0.7638,-0.7654,-0.7655,-0.7663,-0.7659,-0.7662,-0.7664,-0.7665,-0.7676,-0.7679,-0.7685,-0.767,-0.7685,-0.768,-0.7683,-0.7682,-0.7681,-0.7666,-0.7666,-0.7665,-0.7665,0,-0.7588,-0.7594,-0.7596,-0.76,-0.7601,-0.7605,-0.761,-0.7609,-0.7626,-0.7626,-0.7627,-0.7629,-0.7633,-0.7635,-0.764,-0.7645,-0.7657,-0.766,-0.7657,-0.7652,-0.7646,-0.7647,-0.7696,-0.7661,-0.7661,-0.7662,-0.7662,-0.7662,-0.7559,-0.7556,-0.7564,-0.7565,-0.757,-0.7574,-0.7572,-0.7581,-0.7582,-0.7586,-0.7596,-0.7595,-0.7603,-0.761,-0.7615,-0.7615,-0.7622,-0.7618,-0.7617,-0.7616,-0.7612,-0.7647,-0.7616,-0.7616,-0.7616,-0.7616,-0.7616,0,-0.7523,-0.7529,-0.753,-0.7536,-0.7537,-0.7549,-0.7555,-0.7554,-0.7553,-0.7559,-0.7561,-0.7562,-0.7564,-0.7575,-0.7577,-0.7575,-0.758,-0.7575,-0.7574,-0.7575,-0.7606,-0.7608,-0.757,-0.757,-0.757,-0.757,-0.757,-0.757,-0.7505,-0.7499,-0.7507,-0.7504,-0.751,-0.7509,-0.7511,-0.7514,-0.7519,-0.7519,-0.752,-0.7528,-0.7535,-0.7539,-0.754,-0.7544,-0.7543,-0.7536,-0.754,-0.7569,-0.7573,-0.7577,-0.7579,-0.7536,-0.7536,-0.7509,-0.7509,-0.7509]},{"header":{"parameterUnit":"m.s-1","parameterCategory":1,"la1":30.2991,"la2":30.254,"lo1":-89.0895,"lo2":-89.0444,"dy":0.0017,"dx":0.0017,"nx":28,"ny":28,"refTime":"2025-02-24T09:00:00:Z","depth":0,"parameterNumber":3,"parameterNumberName":"V-component_of_WINDS"},"data":[0,0,0,0,0,0,0,0,0,0,0,0,0,0,0,0,0,0,0,0,0,0,0,0,0,0,0,0,0,0,0,0,0,0,0,0,0,0,0,0,0,0,0,0,0,0,0,0,0,0,0,0,0,0,0,0,0,0,-3.6871,-3.687,0,-3.6823,-3.6823,-3.6822,-3.6783,-3.6783,-3.6782,-3.6782,-3.673,-3.6729,-3.6728,0,0,0,0,0,0,0,0,0,0,0,0,0,-3.6926,-3.6925,-3.6871,-3.687,-3.687,-3.6823,-3.6823,-3.6822,-3.6783,-3.6783,-3.6782,-3.6782,-3.673,-3.6729,-3.6727,0,0,0,0,0,0,0,0,0,0,0,0,0,-3.6892,-3.6924,-3.6871,-3.6845,-3.6842,-3.6823,-3.6823,-3.6822,-3.6783,-3.6783,-3.6782,-3.6782,-3.673,-3.6729,-3.6727,-3.6729,0,0,-3.6723,-3.6722,0,0,0,0,0,0,0,0,-3.6894,-3.689,-3.6849,-3.6847,-3.6843,-3.6809,-3.6823,-3.6791,-3.6783,-3.6806,-3.6782,-3.6781,-3.6756,-3.6752,-3.6745,-3.6727,-3.6725,-3.6722,-3.6721,-3.6721,-3.672,0,0,0,0,0,0,0,-3.6896,-3.6892,-3.6852,-3.6849,-3.6845,-3.6835,-3.6829,-3.6816,-3.6785,-3.6804,-3.6801,-3.6796,-3.6754,-3.6746,-3.6743,-3.6724,-3.6722,-3.6721,-3.672,-3.6719,-3.6707,-3.6707,0,0,0,0,0,0,-3.6903,-3.6894,-3.6853,-3.685,-3.6868,-3.6834,-3.6828,-3.682,-3.6785,-3.6779,-3.6796,-3.6794,-3.6749,-3.6745,-3.6741,-3.6742,-3.6721,-3.6719,-3.6718,-3.6706,-3.6707,-3.6708,0,0,0,0,0,0,-3.6905,-3.69,-3.6855,-3.6871,-3.6865,-3.6834,-3.6825,-3.682,-3.6812,-3.6779,-3.6773,-3.6794,-3.6748,-3.6743,-3.6733,-3.674,-3.6719,-3.6717,-3.6705,-3.6706,-3.6707,-3.6745,0,0,0,0,0,0,-3.6906,-3.6901,-3.6902,-3.6872,-3.6864,-3.6849,-3.6826,-3.6819,-3.6809,-3.6806,-3.6775,-3.677,-3.6748,-3.6736,-3.6732,-3.6738,-3.6716,-3.6705,-3.6706,-3.6707,-3.6743,-3.6747,-3.675,0,0,0,0,0,-3.6908,-3.6913,-3.6902,-3.6897,-3.6865,-3.685,-3.6845,-3.6821,-3.681,-3.6811,-3.679,-3.6771,-3.674,-3.6735,-3.673,-3.6736,-3.6704,-3.6706,-3.6707,-3.6741,-3.6746,-3.675,0,0,0,0,0,0,-3.6943,-3.6909,-3.6896,-3.6892,-3.6874,-3.6843,-3.6843,-3.6827,-3.6811,-3.6808,-3.6777,-3.6771,-3.6764,-3.6748,-3.6744,-3.6736,-3.6719,-3.672,-3.6747,-3.6752,-3.6755,-3.676,-3.6715,0,0,0,0,0,-3.6951,-3.6942,-3.6912,-3.6911,-3.6903,-3.6875,-3.6867,-3.685,-3.683,-3.6822,-3.68,-3.6781,-3.6767,-3.6758,-3.6743,-3.674,-3.6733,-3.6741,-3.6745,-3.6748,-3.6749,-3.6748,-3.6751,-3.6712,-3.6712,-3.6712,0,0,-3.6966,-3.6946,-3.6942,-3.6917,-3.6902,-3.6893,-3.6869,-3.686,-3.6853,-3.682,-3.681,-3.6793,-3.6769,-3.6763,-3.6759,-3.675,-3.6759,-3.675,-3.6753,-3.6752,-3.6749,-3.6753,-3.6756,-3.6713,-3.6713,-3.6712,0,0,-3.6989,-3.6972,-3.697,-3.6956,-3.6933,-3.6914,-3.6914,-3.6886,-3.6874,-3.6864,-3.6839,-3.683,-3.6806,-3.679,-3.6779,-3.6797,-3.6779,-3.6793,-3.6813,-3.6812,-3.6815,-3.6817,-3.6825,-3.6828,-3.6794,-3.6794,-3.6794,0,-3.701,-3.6996,-3.6971,-3.6965,-3.6955,-3.6926,-3.6924,-3.691,-3.6883,-3.6876,-3.6866,-3.6837,-3.6819,-3.6809,-3.6814,-3.6805,-3.6804,-3.6797,-3.6817,-3.6819,-3.6821,-3.6828,-3.6831,-3.6796,-3.6796,-3.6795,-3.6795,0,-3.7024,-3.7015,-3.7016,-3.6993,-3.6983,-3.6978,-3.6952,-3.6944,-3.6928,-3.691,-3.69,-3.6877,-3.6858,-3.6854,-3.6837,-3.6843,-3.6838,-3.6823,-3.6805,-3.6827,-3.6833,-3.6836,-3.6799,-3.6798,-3.6797,-3.6797,0,0,-3.7068,-3.7032,-3.7033,-3.7022,-3.6995,-3.6987,-3.6981,-3.6964,-3.6959,-3.6941,-3.6935,-3.6916,-3.6903,-3.689,-3.6871,-3.687,-3.6887,-3.6855,-3.6854,-3.6863,-3.6893,-3.6906,-3.6909,-3.6875,-3.6875,-3.6875,-3.6895,0,-3.7088,-3.7077,-3.7054,-3.7051,-3.7042,-3.7015,-3.701,-3.6992,-3.6976,-3.6966,-3.6946,-3.6934,-3.6916,-3.6909,-3.6906,-3.6886,-3.6893,-3.6884,-3.6869,-3.6869,-3.6878,-3.6912,-3.6925,-3.6945,-3.6897,-3.6898,-3.6898,0,-3.7109,-3.7095,-3.7091,-3.7066,-3.7062,-3.7058,-3.704,-3.7031,-3.7011,-3.6998,-3.6985,-3.6965,-3.6957,-3.694,-3.6929,-3.6923,-3.6915,-3.6904,-3.6904,-3.6903,-3.6886,-3.6913,-3.6951,-3.6955,-3.6901,-3.6901,-3.6901,0,-3.7144,-3.7123,-3.7119,-3.711,-3.708,-3.7078,-3.7066,-3.7045,-3.7036,-3.702,-3.7014,-3.6997,-3.6988,-3.6975,-3.6951,-3.6941,-3.6942,-3.6923,-3.6932,-3.6933,-3.6935,-3.6935,-3.6974,-3.6928,-3.6928,-3.6928,-3.6928,0,-3.7169,-3.7168,-3.7134,-3.7132,-3.7129,-3.7103,-3.7101,-3.7086,-3.7067,-3.7061,-3.7035,-3.7029,-3.6996,-3.6987,-3.6967,-3.6961,-3.6957,-3.6947,-3.6942,-3.695,-3.6952,-3.6946,-3.6944,-3.6928,-3.6928,-3.6928,-3.6928,0,-3.7208,-3.7185,-3.7178,-3.7151,-3.7144,-3.7144,-3.712,-3.7116,-3.7098,-3.709,-3.7086,-3.7058,-3.7045,-3.7019,-3.6998,-3.6985,-3.6984,-3.6974,-3.6992,-3.6989,-3.7,-3.7,-3.7037,-3.7041,-3.6992,-3.6992,-3.6993,0,-3.7226,-3.7225,-3.7198,-3.7192,-3.7181,-3.7172,-3.7164,-3.7137,-3.7129,-3.7106,-3.7105,-3.7091,-3.7078,-3.7059,-3.7035,-3.702,-3.701,-3.7024,-3.7008,-3.7017,-3.7012,-3.7014,-3.7014,-3.7029,-3.7029,-3.703,-3.703,0,-3.7262,-3.7251,-3.724,-3.7226,-3.7217,-3.7204,-3.719,-3.7187,-3.7156,-3.7149,-3.7136,-3.7127,-3.7106,-3.7093,-3.7074,-3.7059,-3.704,-3.7036,-3.7037,-3.7046,-3.7057,-3.7053,-3.7004,-3.7035,-3.7035,-3.7034,-3.7034,-3.7034,-3.7292,-3.729,-3.7271,-3.7261,-3.7247,-3.7235,-3.7231,-3.7212,-3.7202,-3.7185,-3.7169,-3.7158,-3.7138,-3.7111,-3.7098,-3.7089,-3.7079,-3.7081,-3.7082,-3.7083,-3.7087,-3.7058,-3.7085,-3.7085,-3.7084,-3.7084,-3.7084,0,-3.7327,-3.7314,-3.7305,-3.7287,-3.7278,-3.7262,-3.7245,-3.7239,-3.723,-3.7214,-3.7202,-3.7188,-3.7175,-3.7151,-3.7135,-3.7133,-3.7123,-3.7129,-3.713,-3.7127,-3.7096,-3.7097,-3.7137,-3.7137,-3.7137,-3.7137,-3.7137,-3.7137,-3.7345,-3.7342,-3.7329,-3.7319,-3.7305,-3.7296,-3.7288,-3.7276,-3.7263,-3.7249,-3.7239,-3.7224,-3.7204,-3.7187,-3.7174,-3.7167,-3.7163,-3.7173,-3.7163,-3.7134,-3.7129,-3.7125,-3.7126,-3.7172,-3.7172,-3.7196,-3.7196,-3.7196]}]]